Regional Weather Roundup
Issued by NWS

Home | Current Version | Previous Version | Graphics & Text | Print | Product List | Glossary On
Versions: 1 2 3 4 5 6 7 8 9 10 11 12 13 14 15 16 17 18 19 20 21 22 23 24 25 26 27 28 29 30 31 32 33 34 35 36 37 38 39 40 41 42 43 44 45 46 47 48 49 50
000
ASUS45 KTFX 250610
RWRMT
MONTANA REGIONAL WEATHER ROUNDUP
NATIONAL WEATHER SERVICE GREAT FALLS MT
1200 AM MDT MON MAY 25 2015

NOTE: "FAIR" INDICATES FEW OR NO CLOUDS BELOW 12000 FEET WITH NO
SIGNIFICANT WEATHER AND/OR OBSTRUCTIONS TO VISIBILITY.

MTZ001>007-043-250700-
WEST OF THE DIVIDE

CITY           SKY/WX    TMP DP  RH WIND       PRES   REMARKS
KALISPELL      PTCLDY    48  38  68 CALM      29.88F
MISSOULA       MOCLDY    57  38  48 E9        29.92S
BUTTE          CLOUDY    48  42  80 SW5       30.00F
MULLAN PASS    CLOUDY    48  36  63 NW6       29.98F
DEER LODGE       N/A     46  39  76 SW6       30.01F
EUREKA           N/A     61  36  39 S7        29.86S
HAMILTON         N/A     52  39  62 S6        29.92S
LIBBY            N/A     57  39  51 S5        29.86S
RONAN            N/A     53  40  61 CALM      29.95S
$$

MTZ008-052>055-250700-
SOUTHWEST MONTANA

CITY           SKY/WX    TMP DP  RH WIND       PRES   REMARKS
BOZEMAN        PTCLDY    45  43  93 CALM      29.98F FOG
DILLON         CLEAR     47  40  76 E6        29.97S
W YELLOWSTONE  CLOUDY    43  41  93 NE3       30.00F
THREE FORKS      N/A     51  26  38 CALM      29.97F
TWIN BRIDGES     N/A     49  40  71 N12       29.96F
$$

MTZ009-010-012-014-046-048-049-054-250700-
EAST SLOPES AND CENTRAL MONTANA

CITY           SKY/WX    TMP DP  RH WIND       PRES   REMARKS
CUT BANK       CLEAR     50  40  68 S3        29.95F
GREAT FALLS    CLEAR     50  42  74 E6        29.95F
MALMSTROM AFB  CLEAR     47  44  87 S6        29.95F
HELENA         PTCLDY    52  45  77 SW6       29.95F
CONRAD           N/A     43  43 100 E5        29.98F
$$

MTZ011-013-016-021-045-047-050-051-250700-
NORTH CENTRAL MONTANA

CITY           SKY/WX    TMP DP  RH WIND       PRES   REMARKS
HAVRE          MOCLDY    53  45  74 S7        29.92F
LEWISTOWN      CLOUDY    49  45  86 S5        29.97F
N BAR RANCH    MOCLDY    48  45  87 W5        29.99S
CHINOOK          N/A     48  45  87 CALM      29.93S
FORT BENTON      N/A     54  45  71 CALM      29.95S
$$

MTZ017>020-022>027-061-062-250700-
NORTHEAST MONTANA

CITY           SKY/WX    TMP DP  RH WIND       PRES   REMARKS
GLASGOW        PTCLDY    58  43  57 SE6       29.91S
JORDAN           N/A     52  47  83 CALM      29.91F
SIDNEY         MOCLDY    52  48  87 CALM      29.91S
WOLF POINT     PTCLDY    50  44  80 W5        29.91F
MALTA            N/A     51  40  66 CALM      29.89S
POPLAR           N/A     55  50  82 NW6       29.91F
$$

MTZ028>42-056>058-250700-
SOUTHCENTRAL AND SOUTHEAST MONTANA

CITY           SKY/WX    TMP DP  RH WIND       PRES   REMARKS
BAKER          CLOUDY    51  50  96 N6        29.91F FOG
BILLINGS       CLOUDY    53  46  77 SW6       29.93F
LIVINGSTON     CLOUDY    50  45  83 E5        29.97F
MILES CITY     MOCLDY    52  51  97 NW5       29.90F
BIG TIMBER       N/A     48  45  87 CALM      29.98F
EKALAKA          N/A     51  49  93 N3        29.91S
FORSYTH          N/A     55  54  94 CALM      29.91F
LAUREL           N/A     52  44  74 CALM      29.93F
ROUNDUP          N/A     51  43  74 CALM      29.86F
$$

REGIONAL REPORTS...DAKOTAS

CITY           SKY/WX    TMP DP  RH WIND       PRES   REMARKS
WILLISTON      MOCLDY    48  44  86 N3        29.91S
MINOT          CLOUDY    56  47  71 CALM      29.89F
DICKINSON      CLOUDY    56  48  74 N3        29.88F
BEACH          CLOUDY    48  48 100 CALM      29.92F FOG
CROSBY         FAIR      52  45  76 S7        29.92F
WATFORD CITY   FAIR      50  45  81 CALM      29.89F
BISMARCK       LGT RAIN  57  54  89 E6        29.90S
GRAND FORKS    CLOUDY    58  51  78 N3        29.85F
FARGO          CLOUDY    62  54  74 E5        29.84F
BUFFALO SD       N/A     53  50  89 NE7       29.81F
RAPID CITY     MOCLDY    53  52  96 N13       29.85F
$$

REGIONAL REPORTS...WYOMING/IDAHO/WASHINGTON

CITY           SKY/WX    TMP DP  RH WIND       PRES   REMARKS
GILLETTE       CLOUDY    50  47  89 NE7       29.90F
SHERIDAN       LGT RAIN  50  48  93 N6        29.94R
BUFFALO WY     LGT RAIN  46  45  96 NW6       29.94S
CODY           CLOUDY    48  43  81 W5        29.97S
YELLOWSTONE LA   N/A     35  33  92 NW3       30.05S
IDAHO FALLS    CLOUDY    54  47  77 S3        29.92R
SALMON         PTCLDY    52  43  71 NW3       29.91F
BOISE          CLEAR     59  47  64 SE10G17   29.87R
SPOKANE        CLOUDY    60  47  61 N13       29.87R
$$

REGIONAL REPORTS...ALBERTA

CITY           SKY/WX    TMP DP  RH WIND       PRES   REMARKS
EDMONTON       CLEAR     59  37  44 SE2       29.87S
CALGARY        PTCLDY    55  37  50 S8        29.92F
LETHBRIDGE     CLEAR     45  39  81 S9        29.93S
MEDICINE HAT   CLEAR     50  41  71 SW5       29.92S
$$

REGIONAL REPORTS...SASKATCHEWAN

CITY           SKY/WX    TMP DP  RH WIND       PRES   REMARKS
SWIFT CURRENT  CLOUDY    59  34  38 N6        29.92F
REGINA         PTCLDY    59  43  55 E7        29.90S
SASKATOON      PTCLDY    57  39  51 CALM      29.90S
$$



USA.gov is the U.S. government's official web portal to all federal, state and local government web resources and services.